#timestamp,LO_Frequency,Hit 
1497772815.8,286046973.4,N
1497772835.6,286046973.5,N
1497772855.4,286046971.9,N
1497772875.3,286046972.2,N
1497772895.1,286046969.9,N
1497772896.0,286046969.9,N
1497772915.8,286046967.9,N
1497772935.6,286046969.2,N
1497772955.5,286046967.0,N
1497772975.3,286046967.6,N
1497772995.1,286046964.2,N
1497773015.9,286046962.5,N
1497773035.7,286046960.0,N
1497773055.5,286046958.3,N
1497773075.4,286046957.6,N
1497773095.2,286046956.1,N
1497773115.0,286046955.2,N
1497773115.9,286046955.2,N
1497773135.8,286046955.5,N
1497773155.6,286046953.4,N
1497773175.4,286046953.9,N
1497773195.3,286046952.6,N
1497773215.1,286046951.9,N
1497773216.0,286046951.9,N
1497773235.8,286046952.1,N
1497773255.6,286046954.3,N
1497773275.5,286046954.7,N
1497773295.3,286046954.3,N
1497773315.1,286046953.6,N
1497773335.9,286046955.4,N
1497773355.7,286046957.7,N
1497773375.5,286046957.3,N
1497773395.4,286046956.3,N
1497773415.2,286046954.6,N
1497773435.0,286046952.8,N
1497773435.9,286046952.8,N
1497773455.8,286046950.4,N
1497773475.6,286046949.5,N
1497773495.4,286046948.5,N
1497773515.3,286046948.5,N
1497773535.1,286046948.8,N
1497773536.0,286046948.8,N
1497773555.8,286046951.2,N
1497773575.6,286046951.5,N
1497773595.5,286046951.4,N
1497773615.3,286046950.7,N
1497773635.1,286046949.2,N
1497773655.9,286046946.9,N
1497773675.7,286046947.6,N
1497773695.5,286046945.3,N
1497773715.4,286046948.3,N
1497773735.2,286046948.3,N
1497773755.0,286046948.4,N
1497773755.9,286046948.4,N
1497773775.8,286046947.9,N
1497773795.6,286046948.3,N
1497773815.4,286046946.8,N
1497773835.3,286046944.6,N
1497773855.1,286046942.7,N
1497773856.0,286046942.7,N
1497773875.8,286046941.8,N
1497773895.7,286046941.8,N
1497773915.5,286046939.2,N
1497773935.3,286046939.0,N
1497773955.1,286046940.8,N
1497773975.9,286046939.1,N
1497773995.7,286046941.2,N
1497774015.5,286046942.8,N
1497774035.4,286046944.2,N
1497774055.2,286046944.9,N
1497774075.0,286046942.9,N
1497774075.9,286046942.9,N
1497774095.8,286046942.0,N
1497774115.6,286046939.1,N
1497774135.4,286046939.9,N
1497774155.3,286046940.3,N
1497774175.1,286046936.4,Y
1497774195.8,286046964.3,N
1497774215.7,286046965.8,N
1497774235.5,286046963.4,N
1497774255.3,286046965.6,N
1497774275.2,286046965.5,N
1497774295.9,286046965.1,N
1497774315.7,286046965.2,N
1497774335.6,286046965.1,N
1497774355.4,286046963.8,N
1497774375.2,286046963.4,N
1497774395.0,286046964.1,N
1497774396.0,286046964.1,N
1497774415.8,286046961.4,N
1497774435.6,286046964.3,N
1497774455.4,286046964.4,N
1497774475.3,286046960.2,N
1497774495.1,286046960.2,N
1497774515.8,286046960.1,N
1497774535.7,286046960.1,N
1497774555.5,286046960.0,N
1497774575.3,286046962.8,N
1497774595.2,286046958.2,N
1497774615.9,286046958.3,N
1497774635.7,286046958.7,N
1497774655.5,286046958.6,N
1497774675.4,286046958.3,N
1497774695.2,286046957.0,N
1497774715.0,286046957.9,N
1497774715.9,286046957.9,N
1497774735.8,286046955.3,N
1497774755.6,286046957.3,N
1497774775.4,286046955.7,N
1497774795.3,286046953.3,Y
1497774815.1,286046988.6,N
1497774835.8,286046989.0,N
1497774855.7,286046993.2,N
1497774875.5,286046992.5,N
1497774895.3,286046991.7,N
1497774915.2,286046991.8,N
1497774935.9,286046992.5,N
1497774955.7,286046990.6,N
1497774975.5,286046988.5,N
1497774995.4,286046987.3,N
1497775015.2,286046985.5,N
1497775035.0,286046986.6,N
1497775035.9,286046986.6,N
1497775055.8,286046986.2,N
1497775075.6,286046984.4,N
1497775095.4,286046982.1,N
1497775115.3,286046982.3,N
1497775135.1,286046983.3,N
1497775136.0,286046983.3,N
1497775155.8,286046981.4,N
1497775175.7,286046981.6,N
1497775195.5,286046979.3,N
1497775215.3,286046980.1,N
1497775235.1,286046980.3,N
1497775255.9,286046977.7,N
1497775275.7,286046977.6,N
1497775295.5,286046977.6,N
1497775315.4,286046978.3,N
1497775335.2,286046977.1,N
1497775355.0,286046974.6,N
1497775355.9,286046974.6,N
1497775375.8,286046974.9,N
1497775395.6,286046974.9,N
1497775415.4,286046974.3,N
1497775435.3,286046973.0,N
1497775455.1,286046973.8,N
1497775456.0,286046973.8,N
1497775475.8,286046972.8,N
1497775495.7,286046973.6,N
1497775515.5,286046971.2,N
1497775535.3,286046970.9,N
1497775555.1,286046974.0,N
1497775575.9,286046973.6,N
1497775595.7,286046971.9,N
1497775615.5,286046973.7,N
1497775635.4,286046973.7,N
1497775655.2,286046973.8,N
1497775675.0,286046975.6,N
1497775675.9,286046975.6,N
1497775695.8,286046975.0,N
1497775715.6,286046975.2,N
1497775735.4,286046973.1,N
1497775755.2,286046973.1,N
1497775775.1,286046975.5,N
1497775776.0,286046975.5,N
1497775795.8,286046972.9,N
1497775815.6,286046973.4,N
1497775835.5,286046974.0,N
1497775855.3,286046973.1,N
1497775875.1,286046969.6,N
1497775895.9,286046967.9,N
1497775915.7,286046967.9,N
1497775935.5,286046970.6,N
1497775955.4,286046970.0,N
1497775975.2,286046969.9,N
1497775995.0,286046969.5,N
1497775995.9,286046969.5,N
1497776015.7,286046970.2,N
1497776035.6,286046969.7,N
1497776055.4,286046970.3,N
1497776075.2,286046970.3,N
1497776095.1,286046970.0,N
1497776096.0,286046970.0,N
1497776115.8,286046967.8,N
1497776135.6,286046966.5,N
1497776155.5,286046966.5,N
1497776175.3,286046966.2,N
1497776195.1,286046967.1,N
1497776215.9,286046967.3,N
1497776235.7,286046967.0,N
1497776255.5,286046966.1,N
1497776275.3,286046968.5,N
1497776295.2,286046966.5,N
1497776315.0,286046967.3,N
1497776315.9,286046967.3,N
1497776335.7,286046966.8,N
1497776355.6,286046967.1,N
1497776375.4,286046965.7,N
1497776395.2,286046965.9,N
